User: anonymous   Login
Location: Nairn
(57.5833°N, 3.8667°W)
Time: 06:28:55
(UTC+00:00)
Language:

S-56A Canister/Altair - Orbit

View from above orbital plane
View from above orbital plane
View from above satellite
View from above satellite

Ground track
Ground track

The orbit data is extracted from the following two-line orbital elements,

1    82U 61004B   20331.45486056 -.00000104 +00000-0 -43633-4 0  9998
2    82 038.8574 318.5156 1174846 145.5085 222.7818 12.26054905827691
Epoch (UTC): 26 November 2020 10:54:59
Eccentricity: 0.1174846
inclination: 38.8574°
perigee height: 633 km
apogee height: 2499 km
right ascension of ascending node: 318.5156°
argument of perigee: 145.5085°
revolutions per day: 12.26054905
mean anomaly at epoch: 222.7818°
orbit number at epoch: 82769

The dashed part of the orbit path shows where the satellite is in the earth's shadow,  

DLR